Home > Weather > Oberlin > Past weeks

Flag for USA Past Weather in Oberlin, Ohio, USA — Yesterday and Last 2 Weeks

Now
90 °F

Passing clouds.


Feels Like: 94 °F
Forecast: 65 / 91 °F
Wind: 8 mph from Southwest

Location: Lorain County Regional Airport

Current Time: Jun 26, 2016 at 3:11:42 PM

Latest Report: Jun 26, 2016 at 2:53 PM


Visibility: 10 mi

Pressure: 30.03 "Hg

Humidity: 48%

Dew Point: 68 °F

Location of OberlinLocation

Past Weather in Oberlin — Graph

°F

Oberlin Temperature Yesterday

Maximum temperature yesterday: 82 °F (at 1:53 PM)
Minimum temperature yesterday: 52 °F (at 5:53 AM)
Average temperature yesterday: 69 °F

High & Low Weather Summary for the Past Weeks

 TemperatureHumidityPressure
High92 °F (Jun 11, 5:53 PM)93% (Jun 24, 3:53 AM)30.32 "Hg (Jun 24, 3:53 AM)
Low50 °F (Jun 13, 5:53 AM)27% (Jun 18, 3:53 PM)29.65 "Hg (Jun 16, 11:53 AM)
Average72 °F59%30.00 "Hg
* Reported Jun 11 12:53 PM — Jun 26 12:53 PM, Oberlin, Weather by CustomWeather, © 2016

Note: Actual official high and low records may vary slightly from our data, if they occured in-between our weather recording intervals... More about our weather records

Advertising

Oberlin Weather History for the Previous 24 Hours

Scroll right to see more
 ConditionsComfort  
Time TempWeatherWind HumidityBarometerVisibility
12:53 PM
Sun, Jun 26
86 °FPassing clouds.8 mph51%30.07 "Hg10 mi
11:53 AM84 °FSunny.12 mph57%30.09 "Hg10 mi
10:53 AM83 °FSunny.10 mph59%30.10 "Hg10 mi
9:53 AM79 °FSunny.7 mph65%30.11 "Hg10 mi
8:53 AM73 °FSunny.7 mph71%30.10 "Hg10 mi
7:53 AM71 °FSunny.9 mph71%30.09 "Hg10 mi
6:53 AM66 °FClear.7 mph75%30.10 "Hg10 mi
5:53 AM64 °FClear.5 mph78%30.10 "Hg10 mi
4:53 AM63 °FClear.No wind81%30.09 "Hg10 mi
3:53 AM64 °FClear.No wind84%30.09 "Hg10 mi
2:53 AM66 °FClear.5 mph81%30.09 "Hg10 mi
1:53 AM63 °FClear.No wind87%30.12 "Hg8 mi
12:53 AM64 °FClear.5 mph84%30.11 "Hg10 mi
11:53 PM
Sat, Jun 25
65 °FClear.No wind85%30.13 "Hg10 mi
10:53 PM68 °FClear.3 mph78%30.11 "Hg10 mi
9:53 PM71 °FSunny.No wind71%30.10 "Hg10 mi
8:53 PM76 °FSunny.3 mph58%30.09 "Hg10 mi
7:53 PM79 °FSunny.7 mph50%30.09 "Hg10 mi
6:53 PM81 °FSunny.7 mph49%30.10 "Hg10 mi
5:53 PM82 °FSunny.7 mph48%30.12 "Hg10 mi
4:53 PM82 °FSunny.10 mph49%30.13 "Hg10 mi
3:53 PM81 °FSunny.8 mph49%30.13 "Hg10 mi
Weather by CustomWeather, © 2016

See weather overviewHow to use our weather pages